Location: Berbisdorf
(50.7638°N, 12.9442°E)
Time: 22:46:53
(UTC+00:00)

Cosmos-2242 - Pass Details

Date: 07 June 2020
Orbit: 590 x 618 km, 82.5° (Epoch: 05 July)

Event Time Altitude Azimuth Distance (km) Brightness Sun altitude
Rises 00:25:53 0° 344° (NNW) 2,840 7.4 -14.4°
Reaches altitude 10° 00:28:10 10° 338° (NNW) 1,933 6.3 -14.3°
Maximum altitude 00:32:11 42° 267° (W) 847 3.6 -14.1°
Enters shadow 00:34:24 23° 209° (SSW) 1,273 4.0 -14.0°
